SP5XSL-4 Weather Reports


time (UTC)temp
C
wind
direction
speed
KPH
gust
KPH
rain 1hr
cm
rain 24hr
cm
rain mn
cm
humidity
%
barometer
mb
20260505040912 12 121 0.0 0.0 0.00 0.00 0.00 1017.6
20260505035842 12 123 0.0 0.0 0.00 0.00 0.00 1017.6
20260505034940 12 126 0.0 0.0 0.00 0.00 0.00 1017.8
20260505033929 12 128 0.0 0.0 0.00 0.00 0.00 1017.8
20260505033039 12 120 0.0 0.0 0.00 0.00 0.00 1017.6
20260505032059 12 110 0.0 0.0 0.00 0.00 0.00 1018.1
20260505031209 12 135 0.0 0.0 0.00 0.00 0.00 1017.7
20260505030232 12 121 0.0 0.0 0.00 0.00 0.00 1017.9
20260505025321 11 133 0.0 0.0 0.00 0.00 0.00 1017.8
20260505024431 11 126 0.0 0.0 0.00 0.00 0.00 1017.6
20260505023519 11 128 0.0 0.0 0.00 0.00 0.00 1017.6
20260505022512 12 125 0.0 0.0 0.00 0.00 0.00 1017.4
20260505021609 12 119 0.0 0.0 0.00 0.00 0.00 1017.6
20260505020719 11 126 0.0 0.0 0.00 0.00 0.00 1017.8
20260505015752 11 126 0.0 0.0 0.00 0.00 0.00 1017.8
20260505014851 12 123 0.0 0.0 0.00 0.00 0.00 1017.7
20260505014049 12 120 0.0 0.0 0.00 0.00 0.00 1018.0
20260505013129 13 131 0.0 0.0 0.00 0.00 0.00 1018.2
20260505012152 13 116 0.0 0.0 0.00 0.00 0.00 1017.9
20260505011209 13 125 0.0 0.0 0.00 0.00 0.00 1018.0
20260505010319 13 115 0.0 6.4 0.00 0.00 0.00 1018.0
20260505005331 13 157 3.2 6.4 0.00 0.00 0.00 1018.1
20260505004412 14 114 6.4 6.4 0.00 0.00 0.00 1017.9
20260505003611 14 53 11.3 14.5 0.00 0.00 0.00 1017.8
20260505002612 14 129 0.0 0.0 0.00 0.00 0.00 1017.8
20260505001617 14 70 6.4 14.5 0.00 0.00 0.00 1018.0
20260505000631 15 330 14.5 14.5 0.00 0.00 0.00 1018.0
20260504235639 15 29 14.5 17.7 0.00 0.00 0.00 1018.1
20260504234701 15 122 3.2 6.4 0.00 0.00 0.00 1018.0
20260504233741 15 91 11.3 14.5 0.00 0.00 0.00 1018.0
20260504232859 15 8 14.5 17.7 0.00 0.00 0.00 1017.9
20260504231859 15 44 14.5 17.7 0.00 0.00 0.00 1017.9
20260504230942 15 81 6.4 6.4 0.00 0.00 0.00 1017.8
20260504230049 15 120 0.0 0.0 0.00 0.00 0.00 1017.9
20260504225049 15 72 11.3 14.5 0.00 0.00 0.00 1018.0
20260504224152 15 65 14.5 14.5 0.00 0.00 0.00 1018.0
20260504223352 15 90 6.4 14.5 0.00 0.00 0.00 1018.0
20260504222542 15 101 6.4 6.4 0.00 0.00 0.00 1017.9
20260504221732 15 105 6.4 6.4 0.00 0.00 0.00 1017.8
20260504220859 15 128 0.0 0.0 0.00 0.00 0.00 1017.6
20260504220031 15 120 0.0 0.0 0.00 0.00 0.00 1017.9
20260504215112 15 183 3.2 6.4 0.00 0.00 0.00 1017.9
20260504214152 15 95 3.2 6.4 0.00 0.00 0.00 1017.8
20260504213312 15 123 0.0 0.0 0.00 0.00 0.00 1017.9
20260504212320 15 129 0.0 0.0 0.00 0.00 0.00 1017.8
20260504211457 15 340 11.3 14.5 0.00 0.00 0.00 1017.7
20260504210620 15 130 0.0 0.0 0.00 0.00 0.00 1017.7
20260504205622 14 137 0.0 0.0 0.00 0.00 0.00 1017.6
20260504204702 14 145 6.4 6.4 0.00 0.00 0.00 1017.5
20260504203807 14 141 0.0 0.0 0.00 0.00 0.00 1017.6
20260504202951 15 140 0.0 0.0 0.00 0.00 0.00 1017.6
20260504202052 15 140 0.0 0.0 0.00 0.00 0.00 1017.5
20260504201149 15 140 0.0 0.0 0.00 0.00 0.00 1017.8
20260504200159 15 141 0.0 0.0 0.00 0.00 0.00 1017.7
20260504195304 16 140 3.2 6.4 0.00 0.00 0.00 1017.7
20260504194412 16 132 0.0 0.0 0.00 0.00 0.00 1017.5
20260504193412 16 131 0.0 0.0 0.00 0.00 0.00 1017.6
20260504192419 17 129 0.0 6.4 0.00 0.00 0.00 1017.4
20260504191512 17 151 6.4 14.5 0.00 0.00 0.00 1017.6
20260504190529 17 183 0.0 6.4 0.00 0.00 0.00 1017.8
20260504185700 17 161 6.4 14.5 0.00 0.00 0.00 1017.6
20260504184859 18 153 3.2 14.5 0.00 0.00 0.00 1017.5
20260504183954 17 146 6.4 6.4 0.00 0.00 0.00 1017.4
20260504183131 16 135 0.0 0.0 0.00 0.00 0.00 1017.1
20260504182312 17 135 0.0 0.0 0.00 0.00 0.00 1017.2
20260504181329 17 136 0.0 0.0 0.00 0.00 0.00 1016.8
20260504180411 18 136 0.0 0.0 0.00 0.00 0.00 1016.9
20260504175439 19 136 0.0 0.0 0.00 0.00 0.00 1016.7
20260504174549 20 135 0.0 0.0 0.00 0.00 0.00 1016.5
20260504173744 20 135 0.0 0.0 0.00 0.00 0.00 1016.7
20260504172940 21 143 0.0 0.0 0.00 0.00 0.00 1016.5
20260504172059 21 136 0.0 0.0 0.00 0.00 0.00 1016.5
20260504171052 22 163 6.4 14.5 0.00 0.00 0.00 1016.4
20260504170219 22 143 6.4 6.4 0.00 0.00 0.00 1016.6
20260504150252 25 180 35.4 54.7 0.00 0.00 0.00 1016.8
20260504140842 25 193 17.7 25.7 0.00 0.00 0.00 1017.0
20260504130449 26 175 20.9 32.2 0.00 0.00 0.00 1017.2
20260504110135 24 129 29.0 40.2 0.00 0.00 0.00 1018.0
20260504100535 24 172 14.5 17.7 0.00 0.00 0.00 1018.3
20260504090105 22 114 40.2 54.7 0.00 0.00 0.00 1018.4
20260504081258 20 151 46.7 54.7 0.00 0.00 0.00 1018.5
20260504080415 20 123 43.5 54.7 0.00 0.00 0.00 1018.9
20260504060234 16 178 40.2 61.2 0.00 0.00 0.00 1018.7
20260504045125 15 156 20.9 32.2 0.00 0.00 0.00 1018.8
20260504044137 13 100 25.7 25.7 0.00 0.00 0.00 1018.7
20260504043300 13 94 11.3 14.5 0.00 0.00 0.00 1018.9
20260504042448 13 176 17.7 17.7 0.00 0.00 0.00 1018.6